User: anonymous   Login
Location: Caltech
(34.1382°N, 118.1253°W)
Time: 20:38:10
(UTC-08:00)
Language:

RESURS DK-1 - Orbit

View from above orbital plane
View from above orbital plane
View from above satellite
View from above satellite

Ground track
Ground track

The orbit data is extracted from the following two-line orbital elements,

1 29228U 06021A   14352.72466404  .00001863  00000-0  15272-3 0  5297
2 29228 069.9389 255.6133 0007816 284.3270 075.7021 15.01091242471269
Epoch (UTC): 18 December 2014 17:23:30
Eccentricity: 0.0007816
inclination: 69.9389°
perigee height: 558 km
apogee height: 569 km
right ascension of ascending node: 255.6133°
argument of perigee: 284.3270°
revolutions per day: 15.01091242
mean anomaly at epoch: 75.7021°
orbit number at epoch: 47126

The dashed part of the orbit path shows where the satellite is in the earth's shadow,  

DLR